Weather History for Hot Springs, AR

Change the Weather History Date:

Friday, March 21, 2014

  Actual Average Record
Temperature  
Mean Temperature 56 °F -  
Max Temperature 75 °F 66 °F 87 °F (1982)
Min Temperature 36 °F 41 °F 24 °F (1965)
Degree Days  
Heating Degree Days 10    
Growing Degree Days 6 (Base 50)    
Moisture  
Dew Point 38 °F    
Average Humidity 54    
Maximum Humidity 86    
Minimum Humidity 28    
Precipitation  
Precipitation 0.00 in - - ()
Sea Level Pressure  
Sea Level Pressure 29.96 in    
Wind  
Wind Speed 3 mph (South)    
Max Wind Speed 13 mph    
Max Gust Speed 22 mph    
Visibility 10 miles    
Events      
Averages and records for this station are not official NWS values.
T = Trace of Precipitation, MM = Missing Value Source: NWS Daily Summary

Daily Weather History Graph

Daily Weather History Graph

Search for Another Location

Airport:

Trip Planner

Search our weather history database for the weather conditions in past years. The results will help you decide how hot, cold, wet, or windy it might be!

Date:

Astronomy

Mar. 21, 2014 Rise Set
Actual Time 7:14 AM CDT 7:24 PM CDT
Civil Twilight 6:49 AM CDT 7:49 PM CDT
Nautical Twilight 6:20 AM CDT 8:19 PM CDT
Astronomical Twilight 5:50 AM CDT 8:49 PM CDT
Moon No Moon Rise 10:18 AM CDT
Length of Visible Light 13h 00m
Length of Day
12h 10m
Waning Gibbous, 75% of the Moon is Illuminated
Mar 21
Waning Gibbous
Mar 23
Last Quarter
Mar 30
New
Apr 7
First Quarter
Apr 15
Full

Hourly Weather History & Observations

Time (CDT) Temp. Windchill Dew Point Humidity Pressure Visibility Wind Dir Wind Speed Gust Speed Precip Events Conditions
12:53 AM 44.1 °F - 32.0 °F 63% 30.04 in 10.0 mi Calm Calm - N/A   Clear
1:53 AM 42.1 °F - 32.0 °F 67% 30.05 in 10.0 mi Calm Calm - N/A   Clear
2:53 AM 39.9 °F - 32.0 °F 73% 30.04 in 10.0 mi Calm Calm - N/A   Clear
3:53 AM 39.0 °F - 33.1 °F 79% 30.01 in 10.0 mi Calm Calm - N/A   Clear
4:53 AM 37.9 °F - 33.1 °F 83% 30.01 in 10.0 mi Calm Calm - N/A   Clear
5:53 AM 36.0 °F - 32.0 °F 86% 30.00 in 10.0 mi Calm Calm - N/A   Clear
6:53 AM 36.0 °F - 32.0 °F 86% 30.00 in 10.0 mi Calm Calm - N/A   Clear
7:53 AM 39.0 °F 36.8 °F 33.1 °F 79% 30.01 in 10.0 mi NW 3.5 mph - N/A   Clear
8:53 AM 43.0 °F - 37.0 °F 80% 30.00 in 10.0 mi Calm Calm - N/A   Clear
9:53 AM 55.0 °F - 37.9 °F 53% 30.00 in 10.0 mi SSE 3.5 mph - N/A   Clear
10:53 AM 62.1 °F - 39.0 °F 43% 29.99 in 10.0 mi Calm Calm - N/A   Clear
11:53 AM 70.0 °F - 37.9 °F 31% 29.96 in 10.0 mi SW 9.2 mph - N/A   Clear
12:53 PM 71.1 °F - 39.9 °F 32% 29.95 in 10.0 mi SW 12.7 mph 19.6 mph N/A   Clear
1:53 PM 72.0 °F - 42.1 °F 34% 29.93 in 10.0 mi SW 12.7 mph 21.9 mph N/A   Clear
2:53 PM 73.0 °F - 43.0 °F 34% 29.90 in 10.0 mi SSW 10.4 mph - N/A   Clear
3:53 PM 73.0 °F - 43.0 °F 34% 29.89 in 10.0 mi SSW 11.5 mph 18.4 mph N/A   Clear
4:53 PM 75.0 °F - 39.9 °F 28% 29.88 in 10.0 mi SSW 11.5 mph - N/A   Clear
5:53 PM 73.0 °F - 39.0 °F 29% 29.87 in 10.0 mi SSW 6.9 mph - N/A   Clear
6:53 PM 71.1 °F - 42.1 °F 35% 29.88 in 10.0 mi Calm Calm - N/A   Clear
7:53 PM 66.0 °F - 41.0 °F 40% 29.89 in 10.0 mi Calm Calm - N/A   Clear
8:53 PM 61.0 °F - 44.1 °F 54% 29.90 in 10.0 mi East 4.6 mph - N/A   Scattered Clouds
9:53 PM 57.9 °F - 43.0 °F 58% 29.91 in 10.0 mi ENE 6.9 mph - N/A   Clear
10:53 PM 61.0 °F - 42.1 °F 50% 29.91 in 10.0 mi East 3.5 mph - N/A   Clear
11:53 PM 64.0 °F - 45.0 °F 50% 29.92 in 10.0 mi SSE 3.5 mph - N/A   Clear